Weather History for Montague, CA

Change the Weather History Date:

Saturday, October 6, 2012

  Actual Average Record
Temperature  
Mean Temperature 56 °F 56 °F  
Max Temperature 77 °F 74 °F 91 °F (1980)
Min Temperature 34 °F 38 °F 26 °F (1957)
Degree Days  
Heating Degree Days 9 10  
Month to date heating degree days 20 53  
Since 1 July heating degree days 35 195  
Cooling Degree Days 0 0  
Month to date cooling degree days 2 0  
Year to date cooling degree days 621 542  
Growing Degree Days 6 (Base 50)    
Moisture  
Dew Point 26 °F    
Average Humidity 36    
Maximum Humidity 64    
Minimum Humidity 15    
Precipitation  
Precipitation 0.00 in 0.01 in 0.30 in (1993)
Month to date precipitation 0.00 0.08  
Year to date precipitation 7.63 11.72  
Sea Level Pressure  
Sea Level Pressure 30.08 in    
Wind  
Wind Speed 3 mph (East)    
Max Wind Speed 10 mph    
Max Gust Speed 12 mph    
Visibility 10 miles    
Events      
T = Trace of Precipitation, MM = Missing Value Source: NWS Daily Summary

Daily Weather History Graph

Daily Weather History Graph

Search for Another Location

Airport:

Trip Planner

Search our weather history database for the weather conditions in past years. The results will help you decide how hot, cold, wet, or windy it might be!

Date:

Astronomy

Oct. 06, 2012 Rise Set
Actual Time 7:12 AM PDT 6:42 PM PDT
Civil Twilight 6:44 AM PDT 7:09 PM PDT
Nautical Twilight 6:12 AM PDT 7:42 PM PDT
Astronomical Twilight 5:40 AM PDT 8:14 PM PDT
Moon 10:58 PM PDT (10/6) 1:15 PM PDT (10/6)
Length of Visible Light 12h 24m
Length of Day
11h 29m
Waning Gibbous, 64% of the Moon is Illuminated
Oct 6
Waning Gibbous
Oct 8
Last Quarter
Oct 15
New
Oct 21
First Quarter
Oct 29
Full

Hourly Weather History & Observations

Time (PDT) Temp. Windchill Dew Point Humidity Pressure Visibility Wind Dir Wind Speed Gust Speed Precip Events Conditions
12:53 AM 50.0 °F - 28.9 °F 44% 30.10 in 10.0 mi North 4.6 mph - N/A   Clear
1:53 AM 46.9 °F - 27.0 °F 46% 30.11 in 10.0 mi ESE 4.6 mph - N/A   Clear
2:53 AM 50.0 °F - 27.0 °F 41% 30.11 in 10.0 mi NE 8.1 mph - N/A   Clear
3:53 AM 45.0 °F - 27.0 °F 49% 30.10 in 10.0 mi Calm Calm - N/A   Clear
4:53 AM 37.9 °F - 26.1 °F 62% 30.11 in 10.0 mi Calm Calm - N/A   Clear
5:53 AM 36.0 °F - 23.0 °F 59% 30.12 in 10.0 mi Calm Calm - N/A   Clear
6:53 AM 39.0 °F - 26.1 °F 60% 30.14 in 10.0 mi Calm Calm - N/A   Clear
7:53 AM 37.0 °F 34.5 °F 23.0 °F 57% 30.15 in 10.0 mi South 3.5 mph - N/A   Clear
8:53 AM 46.9 °F - 28.9 °F 50% 30.16 in 10.0 mi Calm Calm - N/A   Clear
9:53 AM 54.0 °F - 28.9 °F 38% 30.15 in 10.0 mi Calm Calm - N/A   Clear
10:53 AM 60.1 °F - 26.1 °F 27% 30.13 in 10.0 mi Calm Calm - N/A   Clear
11:53 AM 64.0 °F - 24.1 °F 22% 30.10 in 10.0 mi Calm Calm - N/A   Clear
12:53 PM 68.0 °F - 25.0 °F 20% 30.07 in 10.0 mi Variable 3.5 mph - N/A   Clear
1:53 PM 71.1 °F - 26.1 °F 19% 30.04 in 10.0 mi Calm Calm - N/A   Clear
2:53 PM 73.9 °F - 28.9 °F 19% 30.00 in 10.0 mi South 4.6 mph - N/A   Clear
4:53 PM 75.0 °F - 24.1 °F 15% 29.99 in 10.0 mi South 5.8 mph - N/A   Clear
5:53 PM 75.0 °F - 26.1 °F 16% 29.99 in 10.0 mi Calm Calm - N/A   Clear
6:53 PM 69.1 °F - 26.1 °F 20% 29.99 in 10.0 mi Calm Calm - N/A   Clear
7:53 PM 62.1 °F - 23.0 °F 22% 30.01 in 10.0 mi Calm Calm - N/A   Clear
9:53 PM 50.0 °F - 24.1 °F 36% 30.03 in 10.0 mi ENE 4.6 mph - N/A   Clear
10:53 PM 54.0 °F - 25.0 °F 33% 30.03 in 10.0 mi NNE 9.2 mph - N/A   Clear
11:53 PM 52.0 °F - 24.1 °F 34% 30.03 in 10.0 mi ENE 6.9 mph - N/A   Clear